Other Surface Observations
Issued by NWS Tucson, AZ

Home | Current Version | Previous Version | Text Only | Print | Product List | Glossary On
Versions: 1 2 3 4 5 6 7 8 9 10 11 12 13 14 15 16 17 18 19 20 21 22 23 24 25 26 27 28 29 30 31 32 33 34 35 36 37 38 39 40 41 42 43 44 45 46 47 48 49 50
000
SXUS55 KTWC 030716
OSOTWC

WEATHER ROUNDUP FOR SOUTHEAST ARIZONA
NATIONAL WEATHER SERVICE TUCSON AZ
1215 AM MST THU SEP 03 2015

AZZ504>506-514-030815-
LOCATION       SKY/WX    TMP DP  RH WIND       PRES   REMARKS
TUCSON         MOCLDY    80  58  46 E7        30.01S
DAVIS-MONTHAN  PTCLDY    79  60  50 S8        29.99S
CHILDRENS PARK N/A      N/A N/A  40 SE7               PIMA CO DEQ
ALVERNON/22ND  N/A       82 N/A N/A SE7               PIMA CO DEQ
CHERRY/GLENN   N/A      N/A N/A N/A N/A               PIMA CO DEQ
TANGERINE      N/A       82 N/A N/A S3                PIMA CO DEQ
CONTL RANCH    N/A       86  55  35 SE7               PIMA CO DEQ
GRANT/1ST      N/A       64  52  64 SE8               PIMA CO DEQ
CRAYCROFT/22ND N/A       80  57  46 SE7               PIMA CO DEQ
GOLFLINKS/KOLB N/A      N/A N/A N/A N/A               PIMA CO DEQ
AJO/12TH       N/A       81  58  45 SE5               PIMA CO DEQ
SAGUARO EAST   N/A       26  11  53 S6                PIMA CO DEQ
FAIRGROUNDS    N/A       79 N/A N/A SE13              PIMA CO DEQ
SAGUARO        N/A       76  64  67 CALM              *SABINO CYN
SAN CARLOS     N/A       80  56  44 E5G11             *SAN CARLOS
GREEN VALLEY   N/A       77  57  50 SW6               PIMA CO DEQ
HORSE CAMP CYN N/A       72  58  61 E13G17            *ARAVAIPA CYN
RINCON MTNS    N/A       58  49  71 CALM              *NR MANNING CAMP
$$

AZZ509>511-030815-
LOCATION       SKY/WX    TMP DP  RH WIND       PRES   REMARKS
SAFFORD        PTCLDY    72  61  68 SE7       30.04F
STRAY HORSE    N/A       55  46  72 NE2               *
TRAIL CABIN    N/A       60  53  77 E4                *N OF GRANVILLE
BLACK HILLS    N/A       73  60  64 SE4G11            *N OF FT THOMAS
DRY LAKE       N/A       58  50  74 SE6G10            *NATANES MTNS
NOON CREEK     N/A       66  50  57 SW6               *PINALENO MTNS
COLUMBINE      N/A       45  43  91 CALM              *PINALENO MTNS
GUTHRIE        N/A       62  49  62 E8G17             *SW OF GUTHRIE
$$

AZZ502-503-513-030815-
LOCATION       SKY/WX    TMP DP  RH WIND       PRES   REMARKS
NOGALES        MOCLDY    70  61  73 S5        30.10S
SELLS          N/A       79  58  48 NE4               *
SASABE         N/A       73  59  61 S4                *ALTAR VLY
HOPKINS        N/A       64  48  57 E8                *SANTA RITA MTNS
CARR CYN       N/A       64  57  77 SW2               *W OF HEREFORD
$$

AZZ507-508-512-030815-
LOCATION       SKY/WX    TMP DP  RH WIND       PRES   REMARKS
SIERRA VISTA   CLOUDY    68  59  74 VRB2      30.16F
DOUGLAS        CLOUDY    70  59  68 SE10      30.15S
EMPIRE MTNS    N/A       66  59  77 SW5               *LAS CIENEGAS NCA
MULESHOE RANCH N/A       67  56  68 SE3               *PRESERVE
HEADQUARTERS   N/A       62  55  78 E2                *CHIRICAHUA MTNS
$$

.............................NOTES.............................
THIS IS AN AUTOMATED COLLECTIVE WITH MINIMAL QUALITY CONTROL.
PIMA CO DEQ SITES HAVE NONSTANDARD WIND SENSOR HEIGHTS.
PIMA CO DEQ SITES DO NOT REPORT WIND GUSTS.
* INDICATES WIND SENSORS LOCATED AT 20 FEET INSTEAD OF 33 FEET.
..............................KEY..............................
SKY/WX - SKY CONDITION/WEATHER
TMP    - TEMPERATURE IN FAHRENHEIT
DP     - DEWPOINT IN FAHRENHEIT
RH     - RELATIVE HUMIDITY IN PERCENT
WIND   - DIRECTION AND SPEED IN MILES PER HOUR (MPH)
VRB    - VARIABLE WIND DIRECTION
PRES   - MEAN SEA LEVEL PRESSURE IN INCHES OF MERCURY
         F - FALLING PRESSURE   R - RISING PRESSURE
         S - STEADY PRESSURE
VSB    - VISIBILITY IN MILES
HX     - HEAT INDEX IN FAHRENHEIT
WCI    - WIND CHILL INDEX IN FAHRENHEIT
N/A    - NOT AVAILABLE
AFB    - AIR FORCE BASE
         DAVIS-MONTHAN IS DAVIS-MONTHAN AIR FORCE BASE
CYN    - CANYON
MTNS   - MOUNTAINS
NCA    - NATIONAL CONSERVATION AREA
NR     - NEAR
VLY    - VALLEY
CONTL  - CONTINENTAL
PIMA CO DEQ - PIMA COUNTY DEPT OF ENVIRONMENTAL QUALITY



USA.gov is the U.S. government's official web portal to all federal, state and local government web resources and services.